TimePDT,TemperatureF,Dew PointF,Humidity,Sea Level PressureIn,VisibilityMPH,Wind Direction,Wind SpeedMPH,Gust SpeedMPH,PrecipitationIn,Events,Conditions,WindDirDegrees,DateUTC
12:15 AM,35.6,12.2,38,30.18,7.0,WSW,4.6,-,N/A,,Clear,250,2012-10-07 07:15:00
12:35 AM,33.8,10.4,38,30.19,10.0,Calm,Calm,-,N/A,,Clear,0,2012-10-07 07:35:00
12:55 AM,33.8,14.0,44,30.19,0.5,ENE,3.5,-,N/A,,Unknown,60,2012-10-07 07:55:00
1:15 AM,35.6,15.8,44,30.19,5.0,Calm,Calm,-,N/A,,Clear,0,2012-10-07 08:15:00
1:35 AM,35.6,14.0,41,30.19,10.0,West,4.6,-,N/A,,Clear,270,2012-10-07 08:35:00
1:55 AM,30.2,6.8,37,30.20,4.0,Calm,Calm,-,N/A,,Clear,0,2012-10-07 08:55:00
2:15 AM,30.2,10.4,44,30.19,8.0,Calm,Calm,-,N/A,,Clear,0,2012-10-07 09:15:00
2:35 AM,30.2,10.4,44,30.19,10.0,Calm,Calm,-,N/A,,Clear,0,2012-10-07 09:35:00
2:55 AM,28.4,10.4,47,30.19,10.0,Calm,Calm,-,N/A,,Clear,0,2012-10-07 09:55:00
3:15 AM,28.4,10.4,47,30.19,10.0,Calm,Calm,-,N/A,,Clear,0,2012-10-07 10:15:00
3:35 AM,28.4,10.4,47,30.19,10.0,Calm,Calm,-,N/A,,Clear,0,2012-10-07 10:35:00
3:55 AM,30.2,12.2,47,30.19,10.0,Calm,Calm,-,N/A,,Clear,0,2012-10-07 10:55:00
4:15 AM,26.6,8.6,47,30.19,10.0,Calm,Calm,-,N/A,,Clear,0,2012-10-07 11:15:00
4:35 AM,26.6,8.6,47,30.19,10.0,Calm,Calm,-,N/A,,Clear,0,2012-10-07 11:35:00
4:55 AM,26.6,8.6,47,30.20,10.0,SSW,3.5,-,N/A,,Clear,200,2012-10-07 11:55:00
5:15 AM,26.6,10.4,51,30.19,5.0,Calm,Calm,-,N/A,,Clear,0,2012-10-07 12:15:00
5:35 AM,24.8,6.8,46,30.19,9.0,Calm,Calm,-,N/A,,Clear,0,2012-10-07 12:35:00
5:55 AM,26.6,10.4,51,30.19,10.0,Calm,Calm,-,N/A,,Clear,0,2012-10-07 12:55:00
6:15 AM,26.6,8.6,47,30.19,10.0,NNW,3.5,-,N/A,,Clear,330,2012-10-07 13:15:00
6:55 AM,24.8,10.4,54,30.21,0.5,Calm,Calm,-,N/A,,Unknown,0,2012-10-07 13:55:00
7:15 AM,24.8,8.6,50,30.21,10.0,Calm,Calm,-,N/A,,Clear,0,2012-10-07 14:15:00
7:35 AM,24.8,8.6,50,30.21,9.0,Calm,Calm,-,N/A,,Clear,0,2012-10-07 14:35:00
7:55 AM,28.4,12.2,51,30.21,10.0,Calm,Calm,-,N/A,,Clear,0,2012-10-07 14:55:00
8:15 AM,32.0,15.8,51,30.22,10.0,Calm,Calm,-,N/A,,Clear,0,2012-10-07 15:15:00
8:35 AM,33.8,15.8,48,30.22,8.0,Calm,Calm,-,N/A,,Clear,0,2012-10-07 15:35:00
8:55 AM,35.6,15.8,44,30.21,10.0,Calm,Calm,-,N/A,,Clear,0,2012-10-07 15:55:00
9:15 AM,37.4,17.6,45,30.21,10.0,Calm,Calm,-,N/A,,Clear,0,2012-10-07 16:15:00
9:35 AM,41.0,17.6,39,30.21,10.0,Calm,Calm,-,N/A,,Clear,0,2012-10-07 16:35:00
9:55 AM,42.8,15.8,34,30.21,10.0,Calm,Calm,-,N/A,,Clear,0,2012-10-07 16:55:00
10:35 AM,46.4,17.6,32,30.20,10.0,Calm,Calm,-,N/A,,Clear,0,2012-10-07 17:35:00
10:55 AM,48.2,19.4,32,30.19,10.0,Calm,Calm,-,N/A,,Clear,0,2012-10-07 17:55:00
11:15 AM,48.2,17.6,30,30.19,4.0,NNE,4.6,-,N/A,,Clear,30,2012-10-07 18:15:00
11:35 AM,50.0,17.6,28,30.18,0.2,Calm,Calm,-,N/A,,Unknown,0,2012-10-07 18:35:00
11:55 AM,51.8,19.4,28,30.17,1.8,WNW,4.6,-,N/A,,Clear,300,2012-10-07 18:55:00
12:15 PM,51.8,19.4,28,30.16,4.0,North,3.5,-,N/A,,Clear,350,2012-10-07 19:15:00
12:35 PM,53.6,21.2,28,30.15,6.0,NE,5.8,-,N/A,,Clear,50,2012-10-07 19:35:00
12:55 PM,55.4,21.2,26,30.13,1.0,ENE,3.5,-,N/A,,Clear,60,2012-10-07 19:55:00
1:15 PM,59.0,21.2,23,30.12,6.0,Calm,Calm,-,N/A,,Clear,0,2012-10-07 20:15:00
1:35 PM,60.8,23.0,23,30.11,10.0,North,3.5,-,N/A,,Clear,350,2012-10-07 20:35:00
1:55 PM,64.4,23.0,21,30.10,9.0,East,3.5,-,N/A,,Clear,80,2012-10-07 20:55:00
2:15 PM,66.2,24.8,21,30.09,10.0,Calm,Calm,-,N/A,,Clear,0,2012-10-07 21:15:00
2:35 PM,68.0,23.0,18,30.08,10.0,South,6.9,17.3,N/A,,Clear,170,2012-10-07 21:35:00
2:55 PM,68.0,19.4,16,30.07,10.0,South,10.4,-,N/A,,Clear,180,2012-10-07 21:55:00
3:15 PM,69.8,19.4,15,30.06,10.0,South,8.1,-,N/A,,Clear,170,2012-10-07 22:15:00
3:35 PM,69.8,19.4,15,30.05,10.0,South,11.5,-,N/A,,Clear,190,2012-10-07 22:35:00
3:55 PM,69.8,17.6,14,30.04,10.0,South,9.2,-,N/A,,Clear,170,2012-10-07 22:55:00
4:15 PM,69.8,17.6,14,30.03,10.0,South,9.2,-,N/A,,Clear,170,2012-10-07 23:15:00
4:35 PM,68.0,17.6,15,30.03,10.0,South,9.2,-,N/A,,Clear,170,2012-10-07 23:35:00
4:55 PM,68.0,17.6,15,30.03,10.0,South,9.2,-,N/A,,Clear,180,2012-10-07 23:55:00
5:15 PM,66.2,17.6,15,30.02,10.0,South,9.2,-,N/A,,Clear,180,2012-10-08 00:15:00
5:55 PM,62.6,15.8,16,30.01,10.0,SSE,6.9,-,N/A,,Clear,160,2012-10-08 00:55:00
6:15 PM,59.0,15.8,19,30.00,10.0,SSE,6.9,-,N/A,,Clear,150,2012-10-08 01:15:00
6:35 PM,57.2,15.8,20,30.00,10.0,South,6.9,-,N/A,,Clear,170,2012-10-08 01:35:00
6:55 PM,55.4,15.8,21,30.01,10.0,South,6.9,-,N/A,,Clear,190,2012-10-08 01:55:00
7:15 PM,55.4,15.8,21,30.01,9.0,ESE,3.5,-,N/A,,Clear,120,2012-10-08 02:15:00
7:35 PM,55.4,17.6,23,30.01,10.0,South,3.5,-,N/A,,Clear,170,2012-10-08 02:35:00
7:55 PM,55.4,15.8,21,30.01,10.0,Calm,Calm,-,N/A,,Clear,0,2012-10-08 02:55:00
8:15 PM,51.8,15.8,24,30.01,10.0,South,4.6,-,N/A,,Clear,170,2012-10-08 03:15:00
8:35 PM,44.6,12.2,27,30.02,10.0,East,4.6,-,N/A,,Clear,80,2012-10-08 03:35:00
8:55 PM,44.6,19.4,37,30.02,10.0,Calm,Calm,-,N/A,,Clear,0,2012-10-08 03:55:00
9:15 PM,44.6,19.4,37,30.02,10.0,ENE,4.6,-,N/A,,Clear,60,2012-10-08 04:15:00
9:35 PM,41.0,19.4,42,30.02,10.0,NE,8.1,-,N/A,,Clear,40,2012-10-08 04:35:00
9:55 PM,39.2,17.6,42,30.02,10.0,North,6.9,-,N/A,,Clear,360,2012-10-08 04:55:00
10:15 PM,37.4,15.8,41,30.02,10.0,North,5.8,-,N/A,,Clear,350,2012-10-08 05:15:00
10:35 PM,39.2,17.6,42,30.02,10.0,Calm,Calm,-,N/A,,Clear,0,2012-10-08 05:35:00
10:55 PM,37.4,15.8,41,30.02,10.0,West,5.8,-,N/A,,Clear,280,2012-10-08 05:55:00
11:15 PM,37.4,15.8,41,30.01,10.0,Calm,Calm,-,N/A,,Clear,0,2012-10-08 06:15:00
11:35 PM,33.8,12.2,41,30.01,10.0,Calm,Calm,-,N/A,,Clear,0,2012-10-08 06:35:00
11:55 PM,33.8,14.0,44,30.01,10.0,Calm,Calm,-,N/A,,Clear,0,2012-10-08 06:55:00